"Pseudo-MPEC" for P12os33

Created 2026 Jul 26 4:35:10 UT using Find_Orb

Click here for an explanation of pseudo-MPECs

 
 Astrometry: 
     P12os33*0C2026 07 19.45301720 39 05.087-28 12 53.82   ~7NF5 20.92wXNEOCPF51
     P12os33 0C2026 07 19.47398520 39 04.278-28 15 07.44   ~7NF5 21.11wXNEOCPF51
     P12os33 0C2026 07 19.48463120 39 03.877-28 16 14.38   ~7NF5 20.98wXNEOCPF51
     P12os33 0C2026 07 19.53771220 39 01.890-28 21 50.29   ~7NF5 20.87GVNEOCPF51
     P12os33 0C2026 07 19.53836520 39 01.865-28 21 54.81   ~7NF5 21.43GVNEOCPF51

Station data:
(F51) Pan-STARRS 1, Haleakala  (N20.707234 W156.255910)  US/Hawaii.
   Observers J. Herman, T. Lowe, P. Minguez, A. Schultz, I. Smith. Measurers
   K. Chambers, T. de Boer, J. Fairlamb, H. Gao, M. Huber, C.-C. Lin, E.
   Magnier, Y. Ramanjooloo, R. Wainscoat, R. Weryk. 1.8-m Ritchey-Chrétien +
   CCD.

Orbital elements:  P12os33
   Perihelion 2026 Oct 17.517168 +/- 56.4 TT = 12:24:43.3 (JD 2461331.017168)
Epoch 2026 Jul 19.0 TT = JDT 2461240.5   Earth MOID: 0.2182      AutoNEOCP
M 306.908615979 +/- 33              (J2000 ecliptic)
n   0.586533859 +/- 0.237           Peri.  270.562528 +/- 60
a   1.413428976 +/- 0.382           Node   114.171581 +/- 2.5
e   0.30113970 +/- 0.183            Incl.   25.484797 +/- 12
P   1.680/613.764d         H 22.96  G  0.15   U 11.8  SR
q 0.987789386 +/- 0.264    Q 1.839068566 +/- 1.57
From 5 observations 2026 July 19 (2.0 hr); mean residual 0".17
Residuals in arcseconds: 
260719 F51  .09+  .15+    260719 F51  .04-  .20+    260719 F51  .01+  .19-    
260719 F51  .09-  .37-    260719 F51  .03+  .21+    

Ephemerides (geocentric):
Date (UTC) HH   RA             Dec           delta  r     elong  mag " sig PA
---- --------  ------------   ------------  ------ ------ -----  --- --------
2026 07 26 05  20 35 19.744   -41 13 03.19  .22762 1.2297 158.1 21.1  18d  64
2026 07 26 06  20 35 17.831   -41 18 10.94  .22754 1.2295 158.0 21.1  21d  68
2026 07 26 07  20 35 15.911   -41 23 18.82  .22746 1.2293 157.9 21.1  21d  70
2026 07 26 08  20 35 13.984   -41 28 26.85  .22738 1.2291 157.8 21.1  22d  71
2026 07 26 09  20 35 12.049   -41 33 35.01  .22731 1.2289 157.7 21.1  22d  71
2026 07 26 10  20 35 10.107   -41 38 43.31  .22723 1.2288 157.6 21.1  22d  72
2026 07 26 11  20 35 08.158   -41 43 51.75  .22715 1.2286 157.5 21.1  22d  73
2026 07 26 12  20 35 06.201   -41 49 00.32  .22707 1.2284 157.5 21.1  22d  73
2026 07 26 13  20 35 04.237   -41 54 09.02  .22700 1.2282 157.4 21.1  22d  74
2026 07 26 14  20 35 02.265   -41 59 17.85  .22692 1.2280 157.3 21.1  22d  75
2026 07 26 15  20 35 00.286   -42 04 26.80  .22685 1.2278 157.2 21.1  22d  75
2026 07 26 16  20 34 58.300   -42 09 35.88  .22677 1.2276 157.1 21.1  21d  76
2026 07 26 17  20 34 56.306   -42 14 45.09  .22670 1.2274 157.0 21.1  21d  77
2026 07 26 18  20 34 54.304   -42 19 54.41  .22663 1.2273 156.9 21.1  21d  77
2026 07 26 19  20 34 52.295   -42 25 03.86  .22656 1.2271 156.8 21.1  21d  78
2026 07 26 20  20 34 50.279   -42 30 13.42  .22648 1.2269 156.7 21.1  21d  79
2026 07 26 21  20 34 48.254   -42 35 23.10  .22641 1.2267 156.6 21.2  21d  79
2026 07 26 22  20 34 46.223   -42 40 32.89  .22634 1.2265 156.6 21.2  21d  80
2026 07 26 23  20 34 44.183   -42 45 42.79  .22627 1.2263 156.5 21.2  21d  81
2026 07 27 00  20 34 42.136   -42 50 52.81  .22621 1.2261 156.4 21.2  21d  81
2026 07 27 01  20 34 40.082   -42 56 02.93  .22614 1.2259 156.3 21.2  21d  82
2026 07 27 02  20 34 38.019   -43 01 13.16  .22607 1.2258 156.2 21.2  21d  82
2026 07 27 03  20 34 35.949   -43 06 23.49  .22600 1.2256 156.1 21.2  21d  83
2026 07 27 04  20 34 33.871   -43 11 33.92  .22594 1.2254 156.0 21.2  21d  84
2026 07 27 05  20 34 31.786   -43 16 44.45  .22587 1.2252 155.9 21.2  21d  84
2026 07 27 06  20 34 29.692   -43 21 55.08  .22581 1.2250 155.8 21.2  21d  85
2026 07 27 07  20 34 27.591   -43 27 05.81  .22574 1.2248 155.7 21.2  21d  86
2026 07 27 08  20 34 25.482   -43 32 16.63  .22568 1.2246 155.6 21.2  21d  86
2026 07 27 09  20 34 23.366   -43 37 27.55  .22561 1.2244 155.6 21.2  21d  87
2026 07 27 10  20 34 21.241   -43 42 38.55  .22555 1.2242 155.5 21.2  21d  87
2026 07 27 11  20 34 19.108   -43 47 49.65  .22549 1.2241 155.4 21.2  21d  91
2026 07 27 12  20 34 16.968   -43 53 00.83  .22543 1.2239 155.3 21.2  21d  90
2026 07 27 13  20 34 14.820   -43 58 12.09  .22537 1.2237 155.2 21.2  21d  90
2026 07 27 14  20 34 12.663   -44 03 23.44  .22531 1.2235 155.1 21.2  20d  89
2026 07 27 15  20 34 10.499   -44 08 34.86  .22525 1.2233 155.0 21.2  20d  88
2026 07 27 16  20 34 08.327   -44 13 46.37  .22519 1.2231 154.9 21.2  20d  88
2026 07 27 17  20 34 06.146   -44 18 57.95  .22513 1.2229 154.8 21.2  20d  87
2026 07 27 18  20 34 03.958   -44 24 09.61  .22508 1.2227 154.7 21.2  20d  86
2026 07 27 19  20 34 01.762   -44 29 21.34  .22502 1.2226 154.6 21.2  20d  85
2026 07 27 20  20 33 59.557   -44 34 33.14  .22496 1.2224 154.5 21.2  20d  84
2026 07 27 21  20 33 57.344   -44 39 45.00  .22491 1.2222 154.4 21.2  20d  84
2026 07 27 22  20 33 55.124   -44 44 56.94  .22485 1.2220 154.3 21.2  20d  83
2026 07 27 23  20 33 52.895   -44 50 08.94  .22480 1.2218 154.3 21.2  21d  82
2026 07 28 00  20 33 50.657   -44 55 21.00  .22475 1.2216 154.2 21.2  21d  80
2026 07 28 01  20 33 48.412   -45 00 33.12  .22469 1.2214 154.1 21.2  21d  78
2026 07 28 02  20 33 46.158   -45 05 45.30  .22464 1.2212 154.0 21.2  22d  76
2026 07 28 03  20 33 43.897   -45 10 57.54  .22459 1.2211 153.9 21.2  25d  76
2026 07 28 04  20 33 41.626   -45 16 09.83  .22454 1.2209 153.8 21.2  27d  76